Location: Notre Dame Regional High School Observatory
(37.3056°N, 89.6097°W)
Time: 20:48:37
(UTC-05:00)

Okean-O - Visible Passes

Search period start: 18 April 2014 00:00
Search period end: 28 April 2014 00:00
Orbit: 644 x 645 km, 98.0° (Epoch: 17 April)

Date Brightness Start Highest point End Pass type
(mag) Time Alt. Az. Time Alt. Az. Time Alt. Az.
18 Apr 4.1 03:43:34 10° NE 03:47:31 31° E 03:48:30 28° ESE visible
18 Apr 4.0 05:20:31 10° NNW 05:23:54 22° WNW 05:26:11 15° WSW visible
19 Apr 3.0 04:08:01 10° NNE 04:12:25 60° E 04:13:44 41° SSE visible
19 Apr 4.6 05:46:45 10° NW 05:48:27 12° WNW 05:50:09 10° W visible
20 Apr 2.5 04:32:48 10° N 04:37:14 71° WNW 04:38:57 36° SSW visible
21 Apr 4.9 03:22:16 10° NE 03:25:17 18° E 03:26:29 16° ESE visible
21 Apr 3.3 04:57:52 10° N 05:01:57 37° WNW 05:04:10 22° WSW visible
22 Apr 4.1 03:46:13 10° NNE 03:50:15 33° E 03:51:42 26° SE visible
22 Apr 4.1 05:23:19 10° NNW 05:26:36 20° WNW 05:29:23 12° WSW visible
23 Apr 2.9 04:10:42 10° NNE 04:15:08 64° E 04:16:55 34° S visible
24 Apr 2.6 04:35:30 10° N 04:39:56 66° WNW 04:42:07 29° SSW visible
25 Apr 4.9 03:24:50 10° NE 03:27:59 19° E 03:29:38 16° ESE visible
25 Apr 3.4 05:00:36 10° N 05:04:38 34° WNW 05:07:19 18° SW visible
26 Apr 4.0 03:48:51 10° NNE 03:52:56 35° E 03:54:50 24° SE visible
26 Apr 4.2 05:26:06 10° NNW 05:29:15 19° WNW 05:32:23 10° WSW visible
27 Apr 2.8 04:13:21 10° NNE 04:17:48 69° ESE 04:20:01 29° S visible
